RH
100 97 75 82 69 42 30 29 27 24 45 88 98 97 89 86 89 89 88 78 78 85 91 87 60 54 50 51 71 85 90 95 95 68 62 55 60 64 67 64 58 50 43 37
100 86 100 100 80 57 36 31 31 26 60 88 89 95 99 78 87 96 94 83 75 83 93 96 90 80 68 66 68 69 73 88 87 90 77 67 66 67 67 63 54 46 42 37
98 96 93 97 96 76 54 40 34 27 40 98 96 85 83 91 100 97 96 100 89 81 94 96 97 92 85 84 81 94 87 79 84 86 83 88 81 69 65 60 52 46 41 36
100 100 100 94 84 96 58 41 37 30 25 46 62 39 51 86 88 81 88 78 94 86 87 88 93 96 95 97 97 100 97 96 93 98 96 93 80 67 59 54 48 44 40 34
100 97 96 92 91 90 77 37 32 35 36 28 34 38 50 60 81 80 79 71 76 93 91 84 96 98 95 94 95 98 90 94 96 93 96 96 90 78 63 53 46 42 40 38
100 100 100 100 96 99 92 33 26 25 28 20 21 26 28 58 65 83 95 92 66 80 93 95 99 94 86 89 97 97 97 97 96 97 95 90 85 93 97 82 66 60 42 44
99 100 100 100 95 98 96 62 39 23 20 17 19 22 21 50 51 54 92 89 88 76 81 90 90 94 93 95 95 96 96 93 86 84 87 91 93 91 87 89 90 86 73 71
98 100 96 84 69 85 84 82 48 24 18 17 22 25 41 52 57 48 58 84 70 88 92 96 99 100 100 100 93 96 91 90 90 88 88 88 85 81 72 64 57 51 46 43
100 78 73 72 65 66 60 66 42 24 20 21 21 24 40 60 63 63 68 83 70 52 49 82 96 97 97 99 98 99 89 80 80 86 88 87 86 79 69 60 54 50 49 47
85 75 76 73 80 72 73 65 40 21 19 19 15 20 28 35 42 42 53 63 66 54 62 58 59 81 94 95 95 97 97 95 88 81 73 69 65 64 62 60 57 52 48 46
76 78 70 66 57 78 70 53 34 24 24 17 14 12 14 22 28 31 30 32 40 60 71 80 69 67 94 94 90 88 96 96 92 83 77 72 67 65 63 62 61 60 58 54
81 81 83 74 76 68 62 54 43 38 34 32 30 16 13 17 40 43 39 34 32 32 31 36 50 64 67 74 90 98 95 92 96 87 76 72 70 64 61 63 63 60 58 54
80 76 74 71 65 62 63 64 58 52 44 35 31 22 25 41 62 44 36 27 25 24 20 20 19 19 24 28 39 54 74 93 100 97 86 79 72 64 64 69 69 64 65 64
64 73 74 68 61 67 66 64 59 48 38 47 38 62 70 72 68 51 35 36 34 28 22 16 15 16 17 20 23 35 40 44 57 79 78 68 68 69 65 63 62 61 64 64
74 70 66 64 66 64 74 77 76 61 63 43 58 47 62 77 66 59 37 35 30 26 20 19 18 19 20 22 31 27 33 50 56 54 57 63 69 66 64 62 62 62 62 60
80 76 77 78 74 84 88 84 67 59 52 43 44 35 99 44 46 42 39 28 24 21 35 39 39 30 30 34 40 55 55 55 57 68 68 68 67 67 70 63 48 46 47 40
64 56 57 56 62 70 74 81 70 73 83 65 53 78 81 74 68 54 70 64 66 70 74 71 60 57 61 58 61 74 72 72 75 75 86 86 78 78 75 56 51 48 50 35
86 99 100 100 100 100 100 98 94 97 86 78 81 77 78 76 72 77 70 71 67 66 64 72 69 69 74 84 90 90 88 91 94 89 85 89 86 84 88 83 77 68 65 63
66 68 68 67 74 77 74 73 69 62 58 57 58 59 62 63 65 72 62 63 76 75 70 64 72 71 81 94 98 96 96 90 88 90 92 93 87 83 88 93 84 90 90 93
75 76 79 74 75 78 77 69 65 61 50 48 49 50 51 51 49 59 42 41 43 49 60 73 70 74 81 86 90 92 95 100 99 94 92 99 99 98 98 97 96 97 96 98
81 90 91 93 83 79 69 60 53 47 42 42 52 58 61 68 60 62 55 50 50 48 57 72 70 77 76 89 93 93 96 94 85 92 91 99 100 98 98 99 91 87 75 65
64 80 97 100 87 74 63 56 46 46 57 69 66 59 62 73 84 71 60 58 59 56 61 71 68 70 73 86 97 93 86 87 88 96 100 100 99 100 100 100 100 88 76 71
53 48 50 69 92 97 93 89 72 56 57 59 61 61 62 84 98 85 65 54 56 63 64 60 51 59 79 75 77 100 99 96 100 100 100 100 100 100 99 100 100 99 99 98
52 49 46 42 39 39 44 61 77 85 86 82 71 67 69 76 88 100 97 82 79 60 55 53 54 58 61 63 68 76 90 99 100 100 100 100 100 100 100 99 99 99 100 99
70 60 53 49 50 48 47 35 31 35 32 32 37 52 74 69 81 85 96 100 98 86 79 62 58 74 88 100 99 85 89 100 100 100 99 100 100 100 100 100 100 100 100 99
70 64 56 52 50 55 78 92 85 91 90 82 75 75 51 43 69 68 71 79 100 100 100 100 100 100 100 100 100 100 100 100 97 99 100 100 100 100 100 100 100 100 100 93
Wind_Speed
51 34 39 57 49 50 49 45 42 34 36 48 38 35 45 45 36 48 50 50 49 49 56 52 49 47 45 45 42 42 40 45 47 42 40 39 39 39 38 39 39 38 37 36
50 39 37 45 52 45 45 42 39 37 29 31 40 43 34 39 42 41 50 49 49 46 51 56 53 50 48 46 47 45 42 41 39 37 42 42 43 43 42 41 42 43 41 39
43 43 35 35 45 48 44 40 36 34 32 30 33 45 43 36 32 38 38 57 52 48 47 46 47 54 53 50 48 47 46 45 44 44 42 45 44 45 46 46 45 45 44 42
31 31 36 35 35 43 41 38 33 30 34 35 36 41 47 46 35 33 35 41 54 58 52 52 49 49 47 46 46 50 50 49 46 45 46 50 49 49 48 47 46 45 44 43
35 27 39 34 27 37 35 35 32 27 25 28 33 36 38 37 40 40 39 40 41 53 61 57 55 52 50 48 47 47 47 50 53 54 54 51 51 50 47 46 46 46 46 46
35 29 31 32 28 30 34 29 30 29 28 25 26 29 32 33 34 40 43 39 41 45 53 60 62 54 53 50 50 49 50 52 52 51 50 50 51 52 53 52 50 50 49 47
34 35 31 28 28 27 30 31 30 31 30 28 22 29 28 29 36 37 45 38 38 41 48 52 53 59 58 54 51 49 49 52 53 53 49 48 47 48 48 50 52 53 53 51
21 35 29 25 28 26 30 31 31 33 30 26 21 26 22 26 26 33 34 36 36 41 36 41 51 49 52 53 53 51 50 45 45 45 45 46 46 46 46 47 48 47 47 46
22 29 29 28 25 28 30 29 30 30 30 25 22 22 22 23 23 18 30 31 37 37 37 39 36 40 53 57 59 53 49 47 46 46 46 45 45 47 48 49 49 48 48 48
27 27 30 27 25 27 29 31 29 26 25 23 22 20 20 23 28 25 21 25 32 33 31 32 35 40 41 33 37 48 52 50 48 45 44 45 46 47 48 49 48 47 46 46
25 24 21 24 30 31 27 28 28 26 26 24 22 21 19 18 19 23 26 27 27 29 33 34 34 35 36 35 36 41 46 46 47 48 48 49 49 50 50 51 50 49 47 46
23 19 18 19 19 22 24 27 27 28 28 27 27 25 23 24 23 22 22 24 27 29 32 32 33 35 36 37 41 44 48 47 50 51 50 49 48 48 50 51 50 49 48 48
22 17 20 20 21 24 23 22 26 28 27 27 28 32 28 26 21 22 23 24 26 30 33 35 37 38 39 40 41 42 44 46 50 51 51 51 52 53 52 50 48 49 50 52
18 17 18 20 19 20 21 23 26 29 31 27 31 28 25 24 26 31 33 31 28 30 33 36 38 41 42 41 43 43 42 44 46 50 52 51 51 52 55 55 54 53 51 49
20 19 20 20 20 22 23 24 25 26 23 30 24 28 26 28 29 36 39 38 39 36 32 34 38 41 43 42 41 43 46 46 44 44 45 47 50 51 50 49 50 49 48 46
20 19 20 24 26 26 26 23 24 28 29 32 30 27 25 32 31 31 36 38 41 36 33 35 38 39 40 44 44 42 43 45 45 45 43 44 43 45 46 46 46 45 42 40
24 23 24 25 25 27 28 27 29 28 29 32 30 26 23 22 24 26 26 29 25 22 27 30 34 33 38 41 41 41 41 43 44 41 45 47 45 45 44 45 39 37 40 40
17 19 19 19 21 21 21 24 25 25 26 27 26 27 25 22 25 28 30 29 25 24 27 26 26 26 27 32 36 39 42 43 43 44 43 41 41 38 36 35 46 43 43 35
17 18 19 19 20 22 22 23 24 25 26 25 24 24 24 25 26 30 33 30 28 30 31 29 27 25 26 29 35 38 40 41 40 41 43 43 40 38 39 36 34 37 41 40
15 18 20 19 19 21 23 25 25 26 28 26 24 24 24 25 26 26 31 31 30 31 31 31 29 27 27 28 29 32 35 37 36 32 32 34 35 31 33 34 36 30 29 30
11 13 17 19 18 23 21 21 21 23 24 22 21 22 23 23 25 22 27 30 30 31 32 28 25 25 23 25 28 28 27 26 26 27 28 31 33 35 34 26 28 27 28 29
13 13 13 15 17 20 18 17 19 19 19 18 19 20 19 20 21 20 22 23 26 27 29 28 27 25 24 23 24 25 25 26 26 29 31 31 29 28 29 33 26 26 26 27
17 16 16 16 17 19 19 18 18 19 19 21 22 22 19 20 21 20 18 18 23 25 24 25 24 24 23 23 23 23 25 30 29 30 30 27 28 27 26 24 30 30 29 28
22 21 19 20 21 22 24 24 24 21 21 22 23 22 24 21 23 22 23 25 24 23 25 24 23 22 24 26 26 25 25 23 30 30 29 26 27 26 25 24 24 25 26 27
27 27 25 23 22 20 24 26 26 25 26 25 25 26 26 24 25 23 24 23 22 24 26 26 28 27 27 24 21 26 26 25 25 26 26 27 26 26 26 25 26 28 27 28
31 31 30 28 27 24 24 27 27 26 27 27 25 26 27 28 28 26 26 26 25 24 19 20 24 23 16 20 22 26 24 27 23 24 24 27 26 25 26 26 26 27 28 29
Wind_Direction
181 187 201 203 201 203 208 214 214 218 221 223 226 212 214 217 220 217 220 223 226 229 231 221 232 233 234 237 239 244 248 243 235 236 244 248 252 256 259 263 267 269 271 273
184 192 198 201 204 202 207 214 213 212 212 219 229 220 205 215 215 221 220 225 227 229 229 229 224 231 234 237 241 244 246 249 254 253 253 253 255 258 261 263 267 271 273 274
183 193 191 196 204 206 208 212 216 218 215 215 220 229 227 204 211 219 228 223 229 228 227 227 228 229 232 236 241 245 247 250 252 255 255 256 258 260 262 263 266 269 271 274
182 184 192 202 209 205 208 213 211 214 225 226 229 235 236 231 237 224 223 233 230 230 228 231 233 236 239 241 243 247 248 247 249 250 250 252 255 258 262 265 267 269 271 273
185 190 189 195 203 207 205 211 214 217 223 231 231 236 230 235 234 239 232 232 235 231 234 235 238 238 241 242 245 246 246 247 250 253 259 261 259 257 260 264 266 268 269 271
180 178 187 196 202 205 198 207 215 219 224 232 235 243 232 228 223 230 230 232 234 233 233 233 236 234 237 243 246 245 246 248 250 251 255 257 257 258 258 256 260 264 265 267
177 169 169 181 192 197 200 208 213 218 223 227 229 239 240 232 232 236 234 230 235 239 238 236 239 237 240 241 242 242 245 254 255 255 254 255 256 256 257 258 260 261 263 266
182 204 196 200 199 197 196 204 211 218 220 229 238 239 238 227 230 231 240 239 245 236 233 233 232 232 236 237 236 245 247 247 250 253 255 256 255 257 259 260 261 263 266 268
184 186 191 194 204 206 209 213 215 218 223 234 239 244 239 230 231 236 227 232 245 252 248 245 230 228 229 237 242 241 243 246 251 254 255 255 256 258 260 262 263 264 267 269
176 183 192 197 204 205 206 208 216 222 229 234 238 243 242 242 240 245 237 228 230 238 241 244 250 254 250 242 245 242 244 247 248 247 250 253 255 257 259 260 262 263 266 268
179 183 193 198 205 206 204 207 216 224 231 231 237 244 246 242 234 239 240 240 237 238 241 243 244 242 243 250 254 252 248 243 246 248 252 255 256 258 260 260 261 263 264 266
178 187 193 204 201 207 214 214 219 226 234 242 247 242 243 248 250 241 244 245 246 245 250 250 249 249 250 251 249 245 248 253 251 253 253 255 257 260 262 261 262 263 263 264
182 191 191 190 200 203 213 218 225 230 233 234 240 246 237 249 251 231 242 246 251 256 254 253 253 251 249 250 253 257 258 254 250 254 257 259 260 262 263 264 266 265 265 265
190 195 201 206 208 213 215 219 226 230 231 241 241 255 267 260 250 240 242 253 266 273 266 258 257 258 258 256 255 253 255 258 260 257 257 260 261 261 260 262 263 264 265 267
202 208 211 221 224 225 226 231 238 246 256 251 258 261 261 253 247 242 250 266 273 280 269 266 265 262 257 260 260 257 252 254 257 260 261 261 264 267 270 271 270 268 269 269
220 228 231 233 234 233 238 251 260 259 259 264 262 260 260 255 253 257 264 266 264 262 257 259 258 258 253 254 260 256 251 252 256 259 260 261 262 265 266 268 269 270 271 269
227 232 233 234 237 240 246 253 254 256 259 258 257 261 261 250 246 245 253 261 258 257 261 265 258 260 258 257 259 256 254 256 258 260 260 259 261 261 259 252 252 258 265 263
237 237 239 240 241 243 241 242 248 252 256 261 261 258 259 250 241 248 255 254 248 251 251 255 259 260 259 259 260 259 257 260 260 262 261 261 261 262 264 268 258 257 259 267
243 245 246 246 250 252 250 249 250 255 257 259 261 261 261 257 253 258 257 255 251 257 261 258 260 267 267 262 258 259 261 261 263 264 264 261 258 268 268 265 266 261 259 261
250 248 247 246 245 247 245 245 246 251 256 260 262 265 264 263 257 256 261 261 257 256 259 261 268 265 264 264 263 261 262 261 262 262 268 265 258 260 266 263 265 262 261 259
255 251 245 243 242 244 248 252 255 253 259 262 264 266 268 267 266 262 262 262 260 254 254 260 261 260 263 267 267 262 260 258 263 265 265 267 259 256 251 254 254 250 251 247
252 256 256 250 246 255 263 259 253 253 255 255 264 267 268 271 263 264 264 262 261 254 255 257 259 257 257 262 264 256 256 258 265 262 260 260 262 262 255 248 241 244 249 251
254 255 258 261 262 262 265 263 258 255 257 259 261 266 263 268 264 260 271 268 267 258 255 256 255 249 247 252 259 260 255 256 259 260 258 257 257 255 253 249 238 238 242 247
259 264 269 272 268 266 267 265 263 264 261 261 262 263 266 265 268 264 259 264 265 259 248 248 250 247 248 252 255 256 256 261 262 262 258 253 254 250 251 252 249 247 248 251
264 266 266 269 273 275 272 270 271 275 272 267 267 264 263 259 260 262 263 257 259 257 254 252 248 251 252 265 255 251 254 261 263 264 258 252 252 254 253 252 254 257 257 257
267 270 274 277 280 279 273 277 277 276 275 275 274 274 264 258 258 257 257 259 263 264 250 253 257 250 245 260 257 253 256 251 263 259 258 258 257 256 258 258 258 259 259 257